Погода в Новолитовске

Россия / Приморский край     42°55′05″N   132°48′17″E
темп.,
°C
ветер,
м/с
пор.,
м/с
влажн.,
%
обл.,
%
осадки,
мм/ч
давл.,
гПа
погр.,
м
9 августа, вт
вт901:00+19ссз356788 0.0 100484
04:00+17ссз3568100 0.0 100594
07:00+16с337428 0.0 100555
10:00+22с2546100 0.0 1005955
13:00+23сз1348100 0.0 10051099
16:00+24зсз2444100 0.0 10041053
19:00+21юз1273100 0.0 100461
22:00+16юз11780 0.0 100616
10 августа, ср
ср1001:00+16сз11940 0.0 100611
04:00+15в01961 0.0 100511
07:00+16всв11951 0.0 100523
10:00+23юз24634 0.0 1006608
13:00+25юз46470 0.0 10051243
16:00+25юз47512 0.0 1005974
19:00+21ююз258497 0.0 1006505
22:00+19ююз139998 0.0 1007143
11 августа, чт
чт1101:00+19ю129995 0.0 100676
04:00+19юз119894 0.0 100625
07:00+19юз1199100 0.0 100627
10:00+20ю119791 0.2 1006111
13:00+27юз1259100 0.0 10041131
16:00+26ююз3263100 0.1 10031091
19:00+23юз1189100 0.4 1003184
22:00+19сз229887 2.0 100430
12 августа, пт
пт1201:00+19ссв2292100 0.9 100346
04:00+17ссз229597 1.3 100330
07:00+17ссз23952 0.0 100356
10:00+23сз23710 0.0 1004624
13:00+26сз33480 0.0 10031569
16:00+26сз34450 0.0 10041858
19:00+22сз247231 0.0 1005150
22:00+18ссз2277100 0.0 100634
13 августа, сб
сб1301:00+18ссз2273100 0.0 100733
04:00+17с2272100 0.0 100644
07:00+17с227485 0.0 100736
10:00+24сз125166 0.0 1007833
13:00+26з23445 0.0 10071948
16:00+26з33455 0.0 10061565
19:00+22зюз127224 0.0 100748
22:00+17зсз21805 0.0 100916